| time (UTC) | temp C | wind direction | speed KPH | gust KPH | rain 1hr cm | rain 24hr cm | rain mn cm | humidity % | barometer mb |
| 20260504050403 | 4 | 149 | 0.0 | 0.0 | 0.00 | 0.00 | 0.00 | 78 | 1010.5 |
| 20260504045900 | 4 | 149 | 0.0 | 0.0 | 0.00 | 0.00 | 0.00 | 78 | 1010.7 |
| 20260504045355 | 4 | 148 | 0.0 | 0.0 | 0.00 | 0.00 | 0.00 | 78 | 1010.6 |
| 20260504044853 | 4 | 148 | 0.0 | 1.6 | 0.00 | 0.00 | 0.00 | 78 | 1010.8 |
| 20260504044350 | 4 | 147 | 0.0 | 1.6 | 0.00 | 0.00 | 0.00 | 78 | 1010.7 |
| 20260504043847 | 4 | 162 | 0.0 | 0.0 | 0.00 | 0.00 | 0.00 | 77 | 1010.8 |
| 20260504043344 | 4 | 162 | 0.0 | 1.6 | 0.00 | 0.00 | 0.00 | 77 | 1010.8 |
| 20260504042841 | 4 | 180 | 0.0 | 0.0 | 0.00 | 0.00 | 0.00 | 77 | 1010.8 |
| 20260504042338 | 4 | 180 | 0.0 | 0.0 | 0.00 | 0.00 | 0.00 | 77 | 1010.9 |
| 20260504041834 | 4 | 180 | 0.0 | 0.0 | 0.00 | 0.00 | 0.00 | 78 | 1011.1 |
| 20260504041330 | 4 | 180 | 0.0 | 0.0 | 0.00 | 0.00 | 0.00 | 78 | 1011.2 |
| 20260504040826 | 3 | 180 | 0.0 | 0.0 | 0.00 | 0.00 | 0.00 | 77 | 1011.0 |
| 20260504040324 | 3 | 180 | 1.6 | 1.6 | 0.00 | 0.00 | 0.00 | 78 | 1010.9 |
| 20260504035820 | 3 | 180 | 1.6 | 1.6 | 0.00 | 0.00 | 0.00 | 77 | 1011.1 |
| 20260504035318 | 3 | 180 | 1.6 | 1.6 | 0.00 | 0.00 | 0.00 | 78 | 1011.0 |
| 20260504034815 | 3 | 179 | 0.0 | 0.0 | 0.00 | 0.00 | 0.00 | 79 | 1010.9 |
| 20260504034312 | 3 | 179 | 0.0 | 0.0 | 0.00 | 0.00 | 0.00 | 79 | 1011.1 |
| 20260504033809 | 3 | 179 | 0.0 | 0.0 | 0.00 | 0.00 | 0.00 | 79 | 1011.1 |
| 20260504033307 | 3 | 179 | 0.0 | 0.0 | 0.00 | 0.00 | 0.00 | 79 | 1010.9 |
| 20260504032803 | 3 | 179 | 0.0 | 0.0 | 0.00 | 0.00 | 0.00 | 80 | 1010.9 |
| 20260504032300 | 3 | 179 | 0.0 | 1.6 | 0.00 | 0.00 | 0.00 | 79 | 1011.0 |
| 20260504031757 | 3 | 188 | 4.8 | 4.8 | 0.00 | 0.00 | 0.00 | 81 | 1010.9 |
| 20260504031255 | 2 | 242 | 1.6 | 1.6 | 0.00 | 0.00 | 0.00 | 81 | 1010.9 |
| 20260504030750 | 2 | 242 | 0.0 | 0.0 | 0.00 | 0.00 | 0.00 | 81 | 1010.9 |
| 20260504030248 | 2 | 242 | 0.0 | 0.0 | 0.00 | 0.00 | 0.00 | 81 | 1011.2 |
| 20260504025744 | 2 | 242 | 0.0 | 0.0 | 0.00 | 0.00 | 0.00 | 80 | 1010.9 |
| 20260504025241 | 2 | 242 | 0.0 | 0.0 | 0.00 | 0.00 | 0.00 | 80 | 1011.0 |
| 20260504024738 | 2 | 242 | 0.0 | 0.0 | 0.00 | 0.00 | 0.00 | 80 | 1010.9 |
| 20260504024234 | 2 | 242 | 1.6 | 1.6 | 0.00 | 0.00 | 0.00 | 80 | 1011.0 |
| 20260504023731 | 2 | 242 | 0.0 | 0.0 | 0.00 | 0.00 | 0.00 | 79 | 1011.1 |
| 20260504023227 | 2 | 242 | 0.0 | 0.0 | 0.00 | 0.00 | 0.00 | 78 | 1010.8 |
| 20260504022723 | 2 | 242 | 0.0 | 0.0 | 0.00 | 0.00 | 0.00 | 78 | 1010.8 |
| 20260504022220 | 3 | 242 | 0.0 | 1.6 | 0.00 | 0.00 | 0.00 | 77 | 1010.9 |
| 20260504021717 | 3 | 243 | 0.0 | 0.0 | 0.00 | 0.00 | 0.00 | 76 | 1010.8 |
| 20260504021214 | 3 | 242 | 0.0 | 1.6 | 0.00 | 0.00 | 0.00 | 76 | 1010.7 |
| 20260504020711 | 3 | 242 | 0.0 | 0.0 | 0.00 | 0.00 | 0.00 | 76 | 1011.0 |
| 20260504020207 | 3 | 242 | 0.0 | 0.0 | 0.00 | 0.00 | 0.00 | 75 | 1010.9 |
| 20260504015704 | 3 | 242 | 0.0 | 0.0 | 0.00 | 0.00 | 0.00 | 76 | 1011.0 |
| 20260504015200 | 3 | 243 | 0.0 | 0.0 | 0.00 | 0.00 | 0.00 | 74 | 1011.0 |
| 20260504014656 | 4 | 243 | 0.0 | 0.0 | 0.00 | 0.00 | 0.00 | 73 | 1011.0 |
| 20260504014153 | 4 | 242 | 0.0 | 0.0 | 0.00 | 0.00 | 0.00 | 73 | 1011.0 |
| 20260504013651 | 5 | 243 | 0.0 | 0.0 | 0.00 | 0.00 | 0.00 | 72 | 1011.0 |
| 20260504013148 | 5 | 243 | 0.0 | 0.0 | 0.00 | 0.00 | 0.00 | 72 | 1011.1 |
| 20260504012645 | 5 | 243 | 0.0 | 0.0 | 0.00 | 0.00 | 0.00 | 73 | 1010.8 |
| 20260504012143 | 5 | 243 | 0.0 | 0.0 | 0.00 | 0.00 | 0.00 | 72 | 1010.9 |
| 20260504011639 | 5 | 243 | 0.0 | 0.0 | 0.00 | 0.00 | 0.00 | 71 | 1010.4 |
| 20260504011136 | 5 | 243 | 0.0 | 0.0 | 0.00 | 0.00 | 0.00 | 70 | 1010.6 |
| 20260504010631 | 5 | 243 | 0.0 | 0.0 | 0.00 | 0.00 | 0.00 | 69 | 1010.5 |
| 20260504010128 | 5 | 243 | 0.0 | 0.0 | 0.00 | 0.00 | 0.00 | 68 | 1010.7 |
| 20260504005625 | 6 | 243 | 0.0 | 0.0 | 0.00 | 0.00 | 0.00 | 67 | 1010.4 |
| 20260504005122 | 6 | 243 | 0.0 | 0.0 | 0.00 | 0.00 | 0.00 | 65 | 1010.5 |
| 20260504004620 | 6 | 243 | 0.0 | 0.0 | 0.00 | 0.00 | 0.00 | 64 | 1010.3 |
| 20260504004117 | 6 | 243 | 0.0 | 0.0 | 0.00 | 0.00 | 0.00 | 64 | 1010.4 |
| 20260504003613 | 7 | 243 | 0.0 | 0.0 | 0.00 | 0.00 | 0.00 | 62 | 1010.2 |
| 20260504003109 | 7 | 243 | 0.0 | 0.0 | 0.00 | 0.00 | 0.00 | 59 | 1010.1 |
| 20260504002606 | 8 | 244 | 0.0 | 0.0 | 0.00 | 0.00 | 0.00 | 56 | 1010.3 |
| 20260504002104 | 8 | 244 | 0.0 | 1.6 | 0.00 | 0.00 | 0.00 | 55 | 1010.1 |
| 20260504001602 | 8 | 244 | 0.0 | 0.0 | 0.00 | 0.00 | 0.00 | 54 | 1010.2 |
| 20260504001057 | 8 | 226 | 0.0 | 0.0 | 0.00 | 0.00 | 0.00 | 53 | 1010.0 |
| 20260504000555 | 9 | 227 | 0.0 | 1.6 | 0.00 | 0.00 | 0.00 | 51 | 1010.0 |
| 20260504000052 | 9 | 226 | 1.6 | 3.2 | 0.00 | 0.00 | 0.00 | 50 | 1010.0 |
| 20260503235550 | 9 | 288 | 1.6 | 3.2 | 0.00 | 0.00 | 0.00 | 50 | 1010.0 |
| 20260503235047 | 9 | 225 | 1.6 | 1.6 | 0.00 | 0.00 | 0.00 | 50 | 1009.8 |
| 20260503234545 | 9 | 318 | 3.2 | 3.2 | 0.00 | 0.00 | 0.00 | 49 | 1010.1 |
| 20260503234043 | 10 | 156 | 0.0 | 1.6 | 0.00 | 0.00 | 0.00 | 48 | 1010.2 |
| 20260503233538 | 10 | 91 | 3.2 | 4.8 | 0.00 | 0.00 | 0.00 | 48 | 1010.1 |
| 20260503233035 | 10 | 299 | 3.2 | 6.4 | 0.00 | 0.00 | 0.00 | 46 | 1010.0 |
| 20260503232532 | 10 | 295 | 1.6 | 1.6 | 0.00 | 0.00 | 0.00 | 46 | 1010.0 |
| 20260503232029 | 10 | 345 | 3.2 | 4.8 | 0.00 | 0.00 | 0.00 | 45 | 1009.9 |
| 20260503231527 | 10 | 222 | 4.8 | 4.8 | 0.00 | 0.00 | 0.00 | 44 | 1009.9 |
| 20260503231024 | 10 | 302 | 8.0 | 11.3 | 0.00 | 0.00 | 0.00 | 43 | 1009.7 |
| 20260503230520 | 10 | 304 | 4.8 | 4.8 | 0.00 | 0.00 | 0.00 | 42 | 1009.6 |
| 20260503230018 | 10 | 322 | 4.8 | 6.4 | 0.00 | 0.00 | 0.00 | 42 | 1009.5 |
| 20260503225515 | 10 | 300 | 1.6 | 1.6 | 0.00 | 0.00 | 0.00 | 43 | 1009.6 |
| 20260503225010 | 10 | 317 | 3.2 | 4.8 | 0.00 | 0.00 | 0.00 | 42 | 1009.2 |
| 20260503224507 | 10 | 320 | 3.2 | 4.8 | 0.00 | 0.00 | 0.00 | 41 | 1009.6 |
| 20260503224005 | 11 | 244 | 4.8 | 4.8 | 0.00 | 0.00 | 0.00 | 39 | 1009.5 |
| 20260503223503 | 11 | 267 | 3.2 | 3.2 | 0.00 | 0.00 | 0.00 | 39 | 1009.6 |
| 20260503222958 | 11 | 245 | 1.6 | 1.6 | 0.00 | 0.00 | 0.00 | 39 | 1009.5 |
| 20260503222457 | 11 | 9 | 3.2 | 4.8 | 0.00 | 0.00 | 0.00 | 38 | 1009.4 |
| 20260503221954 | 11 | 304 | 3.2 | 4.8 | 0.00 | 0.00 | 0.00 | 39 | 1009.3 |
| 20260503221452 | 11 | 241 | 1.6 | 1.6 | 0.00 | 0.00 | 0.00 | 38 | 1009.4 |
| 20260503220949 | 11 | 284 | 3.2 | 4.8 | 0.00 | 0.00 | 0.00 | 38 | 1009.4 |
| 20260503220445 | 11 | 270 | 3.2 | 3.2 | 0.00 | 0.00 | 0.00 | 37 | 1009.4 |
| 20260503215942 | 11 | 326 | 6.4 | 6.4 | 0.00 | 0.00 | 0.00 | 37 | 1009.5 |
| 20260503215439 | 11 | 231 | 1.6 | 1.6 | 0.00 | 0.00 | 0.00 | 38 | 1009.3 |
| 20260503214937 | 11 | 225 | 4.8 | 6.4 | 0.00 | 0.00 | 0.00 | 36 | 1009.6 |
| 20260503214435 | 11 | 229 | 3.2 | 4.8 | 0.00 | 0.00 | 0.00 | 35 | 1009.3 |
| 20260503213931 | 11 | 357 | 3.2 | 4.8 | 0.00 | 0.00 | 0.00 | 34 | 1008.9 |
| 20260503213430 | 11 | 153 | 1.6 | 1.6 | 0.00 | 0.00 | 0.00 | 34 | 1009.0 |
| 20260503212926 | 11 | 309 | 3.2 | 4.8 | 0.00 | 0.00 | 0.00 | 34 | 1009.0 |
| 20260503212423 | 11 | 304 | 4.8 | 6.4 | 0.00 | 0.00 | 0.00 | 34 | 1008.8 |
| 20260503211921 | 11 | 248 | 4.8 | 6.4 | 0.00 | 0.00 | 0.00 | 32 | 1009.0 |
| 20260503211417 | 11 | 315 | 3.2 | 4.8 | 0.00 | 0.00 | 0.00 | 33 | 1009.0 |
| 20260503210913 | 11 | 296 | 4.8 | 6.4 | 0.00 | 0.00 | 0.00 | 32 | 1008.9 |
| 20260503210410 | 11 | 312 | 6.4 | 9.7 | 0.00 | 0.00 | 0.00 | 32 | 1009.2 |
| 20260503205910 | 12 | 322 | 1.6 | 3.2 | 0.00 | 0.00 | 0.00 | 32 | 1008.9 |
| 20260503205408 | 12 | 311 | 6.4 | 6.4 | 0.00 | 0.00 | 0.00 | 31 | 1008.8 |
| 20260503204904 | 12 | 240 | 6.4 | 11.3 | 0.00 | 0.00 | 0.00 | 29 | 1008.7 |
| 20260503204401 | 12 | 322 | 4.8 | 4.8 | 0.00 | 0.00 | 0.00 | 29 | 1009.0 |
| 20260503203858 | 12 | 252 | 3.2 | 3.2 | 0.00 | 0.00 | 0.00 | 31 | 1008.8 |
| 20260503203355 | 12 | 302 | 3.2 | 4.8 | 0.00 | 0.00 | 0.00 | 32 | 1008.9 |
| 20260503202852 | 12 | 178 | 1.6 | 1.6 | 0.00 | 0.00 | 0.00 | 29 | 1009.0 |
| 20260503202350 | 13 | 305 | 3.2 | 4.8 | 0.00 | 0.00 | 0.00 | 33 | 1008.8 |
| 20260503201849 | 13 | 294 | 6.4 | 11.3 | 0.00 | 0.00 | 0.00 | 28 | 1008.8 |
| 20260503201345 | 13 | 310 | 3.2 | 4.8 | 0.00 | 0.00 | 0.00 | 33 | 1009.0 |
| 20260503200843 | 13 | 259 | 4.8 | 6.4 | 0.00 | 0.00 | 0.00 | 30 | 1009.2 |
| 20260503200338 | 12 | 309 | 1.6 | 1.6 | 0.00 | 0.00 | 0.00 | 34 | 1008.9 |
| 20260503195836 | 12 | 200 | 1.6 | 1.6 | 0.00 | 0.00 | 0.00 | 30 | 1009.3 |
| 20260503195332 | 12 | 308 | 3.2 | 4.8 | 0.00 | 0.00 | 0.00 | 33 | 1009.5 |
| 20260503194830 | 11 | 200 | 3.2 | 3.2 | 0.00 | 0.00 | 0.00 | 32 | 1009.7 |
| 20260503194325 | 12 | 299 | 4.8 | 6.4 | 0.00 | 0.00 | 0.00 | 35 | 1009.6 |
| 20260503193822 | 12 | 283 | 3.2 | 3.2 | 0.00 | 0.00 | 0.00 | 33 | 1009.5 |
| 20260503193318 | 12 | 311 | 3.2 | 4.8 | 0.00 | 0.00 | 0.00 | 33 | 1009.8 |
| 20260503192814 | 11 | 304 | 6.4 | 6.4 | 0.00 | 0.00 | 0.00 | 31 | 1009.8 |
| 20260503192309 | 12 | 301 | 9.7 | 12.9 | 0.00 | 0.00 | 0.00 | 31 | 1009.9 |
| 20260503191806 | 12 | 62 | 4.8 | 6.4 | 0.00 | 0.00 | 0.00 | 34 | 1009.5 |
| 20260503191303 | 11 | 171 | 9.7 | 11.3 | 0.00 | 0.00 | 0.00 | 35 | 1009.7 |
| 20260503190800 | 11 | 233 | 9.7 | 17.7 | 0.00 | 0.00 | 0.00 | 34 | 1009.9 |
| 20260503190257 | 11 | 301 | 3.2 | 4.8 | 0.00 | 0.00 | 0.00 | 37 | 1010.0 |
| 20260503185754 | 11 | 276 | 1.6 | 3.2 | 0.00 | 0.00 | 0.00 | 34 | 1009.9 |
| 20260503185249 | 10 | 287 | 3.2 | 6.4 | 0.00 | 0.00 | 0.00 | 38 | 1010.0 |
| 20260503184744 | 11 | 323 | 6.4 | 6.4 | 0.00 | 0.00 | 0.00 | 34 | 1010.1 |
| 20260503184241 | 11 | 186 | 1.6 | 1.6 | 0.00 | 0.00 | 0.00 | 32 | 1010.2 |
| 20260503183737 | 10 | 317 | 3.2 | 4.8 | 0.00 | 0.00 | 0.00 | 37 | 1010.1 |
| 20260503183235 | 10 | 345 | 6.4 | 11.3 | 0.00 | 0.00 | 0.00 | 37 | 1010.0 |
| 20260503182732 | 10 | 238 | 6.4 | 6.4 | 0.00 | 0.00 | 0.00 | 36 | 1010.3 |
| 20260503182231 | 9 | 355 | 3.2 | 3.2 | 0.00 | 0.00 | 0.00 | 40 | 1010.2 |
| 20260503181727 | 10 | 225 | 6.4 | 6.4 | 0.00 | 0.00 | 0.00 | 36 | 1010.4 |
| 20260503181224 | 10 | 315 | 3.2 | 4.8 | 0.00 | 0.00 | 0.00 | 40 | 1010.5 |
| 20260503180720 | 10 | 32 | 3.2 | 4.8 | 0.00 | 0.00 | 0.00 | 41 | 1010.4 |
| 20260503180219 | 8 | 239 | 3.2 | 3.2 | 0.00 | 0.00 | 0.00 | 40 | 1010.5 |
| 20260503175715 | 8 | 318 | 1.6 | 6.4 | 0.00 | 0.00 | 0.00 | 43 | 1010.4 |
| 20260503175213 | 8 | 47 | 1.6 | 3.2 | 0.00 | 0.00 | 0.00 | 43 | 1010.7 |
| 20260503174709 | 8 | 320 | 6.4 | 6.4 | 0.00 | 0.00 | 0.00 | 43 | 1010.7 |
| 20260503174207 | 8 | 315 | 4.8 | 4.8 | 0.00 | 0.00 | 0.00 | 44 | 1010.9 |
| 20260503173702 | 8 | 322 | 4.8 | 4.8 | 0.00 | 0.00 | 0.00 | 44 | 1010.8 |
| 20260503173158 | 8 | 353 | 3.2 | 4.8 | 0.00 | 0.00 | 0.00 | 44 | 1010.9 |
| 20260503172655 | 8 | 329 | 3.2 | 3.2 | 0.00 | 0.00 | 0.00 | 43 | 1010.9 |
| 20260503172152 | 8 | 216 | 1.6 | 1.6 | 0.00 | 0.00 | 0.00 | 45 | 1010.8 |
| 20260503171648 | 7 | 230 | 3.2 | 3.2 | 0.00 | 0.00 | 0.00 | 43 | 1011.2 |
| 20260503171146 | 7 | 317 | 3.2 | 4.8 | 0.00 | 0.00 | 0.00 | 44 | 1011.1 |
| 20260503170643 | 7 | 321 | 4.8 | 4.8 | 0.00 | 0.00 | 0.00 | 43 | 1011.1 |
| 20260503170140 | 7 | 149 | 3.2 | 4.8 | 0.00 | 0.00 | 0.00 | 43 | 1011.1 |
| 20260503150531 | 6 | 307 | 0.0 | 1.6 | 0.00 | 0.00 | 0.00 | 49 | 1011.1 |
| 20260503130926 | 5 | 328 | 4.8 | 4.8 | 0.00 | 0.00 | 0.00 | 56 | 1011.5 |
| 20260503130424 | 5 | 308 | 6.4 | 6.4 | 0.00 | 0.00 | 0.00 | 56 | 1011.5 |
| 20260503110829 | 2 | 213 | 0.0 | 1.6 | 0.00 | 0.00 | 0.00 | 77 | 1011.2 |
| 20260503110326 | 2 | 152 | 1.6 | 3.2 | 0.00 | 0.00 | 0.00 | 76 | 1010.9 |
| 20260503100252 | 0 | 231 | 0.0 | 0.0 | 0.00 | 0.00 | 0.00 | 92 | 1010.9 |
| 20260503090212 | 0 | 233 | 0.0 | 0.0 | 0.00 | 0.00 | 0.00 | 92 | 1011.0 |
| 20260503081144 | 0 | 233 | 0.0 | 0.0 | 0.00 | 0.00 | 0.00 | 92 | 1011.1 |
| 20260503080640 | 0 | 233 | 0.0 | 0.0 | 0.00 | 0.00 | 0.00 | 92 | 1011.2 |
| 20260503080137 | -1 | 233 | 0.0 | 0.0 | 0.00 | 0.00 | 0.00 | 92 | 1011.3 |
| 20260503072614 | -1 | 234 | 0.0 | 0.0 | 0.00 | 0.00 | 0.00 | 92 | 1011.3 |
| 20260503072111 | -1 | 234 | 0.0 | 0.0 | 0.00 | 0.00 | 0.00 | 92 | 1011.4 |
| 20260503071608 | -1 | 234 | 0.0 | 0.0 | 0.00 | 0.00 | 0.00 | 92 | 1011.3 |
| 20260503071105 | -1 | 234 | 0.0 | 0.0 | 0.00 | 0.00 | 0.00 | 91 | 1011.0 |
| 20260503070601 | -1 | 234 | 0.0 | 0.0 | 0.00 | 0.00 | 0.00 | 92 | 1011.4 |